FW4185 Weather Reports


Display with metric or nautical units.
time (UTC)temp
F
wind
direction
speed
MPH
gust
MPH
rain 1hr
in
rain 24hr
in
rain mn
in
humidity
%
barometer
mb
20260901204957 79 356 0.0 0.0 0.00 0.00 0.01 74 1014.3
20260901204317 0 356 0.0 0.0 0.00 0.00 0.01
20260901203533 0 356 0.0 0.0 0.00 0.00 0.01
20260901202740 0 358 0.0 8.0 0.00 0.00 0.01
20260901201953 78 355 5.0 8.0 0.00 0.00 0.01 78 1014.4
20260901201318 0 355 3.0 10.0 0.00 0.00 0.01
20260901200519 0 356 2.0 9.0 0.00 0.00 0.01
20260901195804 0 355 6.0 4.0 0.00 0.00 0.01
20260901195010 0 355 7.0 6.0 0.00 0.00 0.01
20260901194218 78 358 7.0 11.0 0.00 0.00 0.01 78 1014.2
20260901193538 77 355 7.0 11.0 0.00 0.00 0.01 80 1014.3
20260901192858 77 355 6.0 10.0 0.00 0.00 0.01 81 1014.3
20260901192218 77 355 6.0 10.0 0.00 0.00 0.01 81 1014.4
20260901191539 78 355 1.0 8.0 0.00 0.00 0.01 79 1014.5
20260901190908 0 357 7.0 6.0 0.00 0.00 0.01
20260901190106 77 354 0.0 6.0 0.00 0.00 0.01 83 1014.8
20260901185426 77 355 3.0 6.0 0.00 0.00 0.01 82 1014.8
20260901184746 0 357 0.0 0.0 0.00 0.00 0.01
20260901183825 0 352 0.0 5.0 0.00 0.00 0.01
20260901182709 78 355 0.0 0.0 0.00 0.00 0.01 83 1014.8
20260901182030 0 354 0.0 5.0 0.00 0.00 0.01
20260901181119 78 356 2.0 6.0 0.00 0.00 0.01 79 1014.7
20260901180440 77 356 0.0 7.0 0.00 0.00 0.01 83 1014.6
20260901175809 0 353 6.0 3.0 0.00 0.00 0.01
20260901175008 77 359 5.0 10.0 0.00 0.00 0.01 83 1014.5
20260901174331 77 355 1.0 9.0 0.00 0.00 0.01 83 1014.3
20260901173649 77 358 0.0 10.0 0.00 0.00 0.01 83 1014.3
20260901173013 77 357 6.0 10.0 0.00 0.00 0.01 85 1014.3
20260901172329 77 357 3.0 8.0 0.00 0.00 0.01 85 1014.1
20260901171649 0 356 4.0 6.0 0.00 0.00 0.01
20260901170855 76 354 3.0 5.0 0.00 0.00 0.01 83 1013.9
20260901170110 77 356 1.0 7.0 0.00 0.00 0.01 83 1013.9
20260901165425 79 356 0.0 6.0 0.00 0.00 0.01 77 1014.0
20260901164746 79 357 1.0 7.0 0.00 0.00 0.01 78 1014.0
20260901164105 79 359 0.0 6.0 0.00 0.00 0.01 77 1014.0
20260901163226 0 355 3.0 7.0 0.00 0.00 0.01
20260901162425 78 356 3.0 9.0 0.00 0.00 0.01 81 1014.0
20260901161735 77 355 0.0 9.0 0.00 0.00 0.01 81 1014.0
20260901160917 0 352 5.0 4.0 0.00 0.00 0.01
20260901160212 0 355 6.0 3.0 0.00 0.00 0.01
20260901155420 0 356 2.0 10.0 0.00 0.00 0.01
20260901154335 77 355 5.0 4.0 0.00 0.00 0.01 83 1013.9
20260901153629 77 353 4.0 10.0 0.00 0.00 0.01 83 1013.9
20260901153003 77 355 4.0 10.0 0.00 0.00 0.01 81 1013.8
20260901152308 77 352 1.0 7.0 0.00 0.00 0.01 80 1013.8
20260901151628 78 356 1.0 8.0 0.00 0.00 0.01 80 1013.7
20260901150948 78 356 2.0 8.0 0.00 0.00 0.01 81 1013.7
20260901150308 78 353 2.0 8.0 0.00 0.00 0.01 80 1013.7
20260901145628 78 357 4.0 9.0 0.00 0.00 0.01 81 1013.7
20260901144948 77 354 6.0 9.0 0.00 0.00 0.01 82 1013.6
20260901144308 77 358 6.0 10.0 0.00 0.00 0.01 82 1013.6
20260901143628 0 355 6.0 6.0 0.00 0.00 0.01
20260901142839 77 354 7.0 10.0 0.00 0.00 0.01 83 1013.7
20260901142159 78 354 4.0 10.0 0.00 0.00 0.01 82 1013.9
20260901141519 77 357 6.0 14.0 0.00 0.00 0.01 83 1013.8
20260901140843 76 355 8.0 14.0 0.00 0.00 0.01 84 1013.8
20260901140158 76 355 7.0 11.0 0.00 0.00 0.01 84 1013.9
20260901135518 76 352 7.0 11.0 0.00 0.00 0.01 84 1013.9
20260901134839 76 355 7.0 14.0 0.00 0.00 0.01 85 1013.9
20260901134204 75 354 0.0 10.0 0.00 0.00 0.01 85 1013.9
20260901133520 0 354 6.0 9.0 0.00 0.00 0.01
20260901132615 75 355 6.0 10.0 0.00 0.00 0.01 87 1014.0
20260901131935 75 353 7.0 6.0 0.00 0.00 0.01 87 1013.9
20260901131233 74 355 7.0 11.0 0.00 0.00 0.01 87 1013.9
20260901130557 74 355 7.0 16.0 0.00 0.00 0.01 87 1013.9
20260901125908 74 352 8.0 13.0 0.00 0.00 0.01 87 1014.0
20260901125229 0 352 7.0 5.0 0.00 0.00 0.01
20260901124338 74 355 0.0 10.0 0.00 0.00 0.01 87 1014.1
20260901123648 0 356 3.0 11.0 0.00 0.00 0.01
20260901122640 74 355 8.0 11.0 0.00 0.00 0.01 86 1014.0
20260901122000 0 355 7.0 9.0 0.00 0.00 0.01
20260901121209 74 357 5.0 9.0 0.00 0.00 0.01 86 1013.9
20260901120530 74 357 1.0 7.0 0.00 0.00 0.01 86 1013.8
20260901115850 74 356 1.0 7.0 0.00 0.00 0.01 85 1013.8
20260901115219 74 354 1.0 6.0 0.00 0.00 0.01 85 1013.7
20260901114530 74 357 1.0 8.0 0.00 0.00 0.01 84 1013.7
20260901113850 0 354 2.0 8.0 0.00 0.00 0.01
20260901112954 0 356 4.0 3.0 0.00 0.00 0.01
20260901112206 0 355 4.0 3.0 0.00 0.00 0.01
20260901111418 75 353 3.0 10.0 0.00 0.00 0.01 82 1013.3
20260901110739 0 356 4.0 3.0 0.00 0.00 0.01
20260901105950 75 351 6.0 10.0 0.00 0.00 0.01 80 1013.3
20260901105320 75 355 4.0 10.0 0.00 0.00 0.01 79 1013.2
20260901104630 76 354 6.0 10.0 0.00 0.00 0.01 77 1013.1
20260901103950 0 359 7.0 9.0 0.00 0.00 0.01
20260901103049 76 355 6.0 12.0 0.00 0.00 0.01 72 1013.0
20260901102409 77 358 7.0 13.0 0.00 0.00 0.01 68 1012.9
20260901101729 0 354 8.0 8.0 0.00 0.00 0.01
20260901100940 0 356 9.0 6.0 0.00 0.00 0.01
20260901100149 78 356 8.0 15.0 0.00 0.00 0.01 63 1012.6
20260901095510 77 353 8.0 11.0 0.00 0.00 0.01 64 1012.6
20260901094830 78 356 7.0 16.0 0.00 0.00 0.01 63 1012.6
20260901094150 0 351 10.0 8.0 0.00 0.00 0.01
20260901093334 76 357 8.0 11.0 0.00 0.00 0.01 65 1012.7
20260901092654 75 354 6.0 10.0 0.00 0.00 0.01 68 1012.6
20260901092015 0 352 4.0 4.0 0.00 0.00 0.01
20260901091226 0 353 5.0 5.0 0.00 0.00 0.01
20260901090438 0 357 6.0 10.0 0.00 0.00 0.01
20260901085649 0 351 8.0 8.0 0.00 0.00 0.01
20260901084901 74 353 6.0 10.0 0.00 0.00 0.01 74 1012.5
20260901084221 74 357 7.0 10.0 0.00 0.00 0.01 75 1012.5
20260901083541 74 353 7.0 10.0 0.00 0.00 0.01 75 1012.5
20260901082901 0 349 7.0 8.0 0.00 0.00 0.01
20260901081806 74 356 7.0 10.0 0.00 0.00 0.01 75 1012.6
20260901081127 74 353 6.0 10.0 0.00 0.00 0.01 75 1012.6
20260901080446 74 352 6.0 9.0 0.00 0.00 0.01 76 1012.7
20260901075806 74 355 2.0 10.0 0.00 0.00 0.01 76 1012.7
20260901075127 74 355 6.0 10.0 0.00 0.00 0.01 77 1012.8
20260901074448 0 353 5.0 5.0 0.00 0.00 0.01
20260901073543 73 355 4.0 7.0 0.00 0.00 0.01 79 1012.9
20260901072903 73 356 0.0 6.0 0.00 0.00 0.01 80 1013.0
20260901072224 73 356 1.0 6.0 0.00 0.00 0.01 79 1013.1
20260901071548 73 355 2.0 6.0 0.00 0.00 0.01 79 1013.1
20260901070903 73 354 1.0 8.0 0.00 0.00 0.01 78 1013.2
20260901070222 73 353 0.0 7.0 0.00 0.00 0.01 78 1013.2
20260901065544 73 354 4.0 7.0 0.00 0.00 0.01 79 1013.4
20260901064903 0 354 3.0 6.0 0.00 0.00 0.01
20260901064113 0 352 6.0 4.0 0.00 0.00 0.01
20260901063213 0 352 4.0 5.0 0.00 0.00 0.01
20260901062423 73 354 6.0 9.0 0.00 0.00 0.01 79 1013.8
20260901061743 73 354 5.0 10.0 0.00 0.00 0.01 80 1013.9
20260901061105 0 352 7.0 8.0 0.00 0.00 0.01
20260901060315 73 351 7.0 11.0 0.00 0.00 0.01 79 1014.1
20260901055635 72 355 6.0 10.0 0.00 0.00 0.01 81 1014.1
20260901054955 72 355 4.0 8.0 0.00 0.00 0.01 83 1014.1
20260901054314 72 353 5.0 9.0 0.00 0.00 0.01 83 1014.2
20260901053635 72 356 6.0 8.0 0.00 0.00 0.01 83 1014.3
20260901052955 72 353 1.0 4.0 0.00 0.00 0.01 82 1014.3
20260901052205 72 357 2.0 8.0 0.00 0.00 0.01 82 1014.3
20260901051525 71 355 2.0 8.0 0.00 0.00 0.01 82 1014.4
20260901050845 71 355 1.0 5.0 0.00 0.00 0.01 82 1014.4
20260901050206 71 353 0.0 0.0 0.00 0.00 0.01 83 1014.6
20260901045526 0 356 0.0 0.0 0.00 0.00 0.01
20260901044147 71 354 0.0 3.0 0.00 0.00 0.01 86 1014.7
20260901043508 71 356 0.0 0.0 0.00 0.00 0.01 87 1014.8
20260901042827 71 358 0.0 4.0 0.00 0.00 0.01 87 1014.8
20260901042148 71 356 0.0 6.0 0.00 0.00 0.01 88 1014.9
20260901041508 71 356 1.0 6.0 0.00 0.00 0.01 87 1015.0
20260901040829 0 357 6.0 3.0 0.00 0.00 0.01
20260901040041 0 356 1.0 5.0 0.00 0.00 0.01
20260901035252 70 354 0.0 0.0 0.00 0.00 0.01 87 1015.0
20260901034611 71 356 0.0 0.0 0.00 0.00 0.01 85 1014.9
20260901033932 0 357 0.0 0.0 0.00 0.00 0.00
20260901033139 71 354 0.0 0.0 0.00 0.00 0.00 85 1014.9
20260901032500 0 353 0.0 0.0 0.00 0.00 0.00
20260901031710 71 355 0.0 0.0 0.00 0.00 0.00 85 1015.1
20260901031029 71 355 0.0 0.0 0.00 0.00 0.00 84 1015.1
20260901030349 0 355 0.0 0.0 0.00 0.00 0.25
20260901025339 0 359 0.0 0.0 0.00 0.00 0.25
20260901024545 71 357 0.0 0.0 0.00 0.00 0.25 83 1015.3
20260901023905 71 356 0.0 0.0 0.00 0.00 0.25 83 1015.6
20260901023226 71 355 0.0 0.0 0.00 0.00 0.25 83 1015.7
20260901022555 71 358 0.0 0.0 0.00 0.00 0.25 84 1015.5
20260901021905 71 357 0.0 0.0 0.00 0.00 0.25 85 1015.6
20260901021226 0 355 0.0 0.0 0.00 0.00 0.25
20260901020435 71 356 0.0 0.0 0.00 0.00 0.25 86 1015.9
20260901015755 71 355 0.0 0.0 0.00 0.00 0.25 85 1016.0
20260901014954 72 355 0.0 0.0 0.00 0.00 0.25 85 1016.0
20260901014315 71 354 0.0 0.0 0.00 0.00 0.25 85 1016.0
20260901013634 71 356 0.0 0.0 0.00 0.00 0.25 85 1016.0
20260901012954 0 353 0.0 0.0 0.00 0.00 0.25
20260901012203 0 359 0.0 0.0 0.00 0.00 0.25
20260901011412 72 353 0.0 0.0 0.00 0.00 0.25 85 1016.0
20260901010737 0 355 0.0 0.0 0.00 0.00 0.25
20260901005723 72 355 0.0 0.0 0.00 0.00 0.25 85 1016.0
20260901005038 72 355 0.0 0.0 0.00 0.00 0.25 85 1016.0
20260901004403 72 356 0.0 0.0 0.00 0.00 0.25 85 1015.8
20260901003728 0 357 0.0 0.0 0.00 0.00 0.25
20260901003010 72 356 0.0 6.0 0.00 0.00 0.25 85 1015.8
20260901002330 0 352 1.0 7.0 0.00 0.00 0.25
20260901001309 72 356 0.0 4.0 0.00 0.00 0.25 84 1015.8
20260901000619 72 354 0.0 7.0 0.00 0.00 0.25 83 1015.6
20260831235939 0 355 6.0 5.0 0.00 0.00 0.25
20260831235145 72 354 0.0 6.0 0.00 0.00 0.25 83 1015.7
20260831234507 0 356 5.0 6.0 0.00 0.00 0.25
20260831233425 72 356 7.0 9.0 0.00 0.00 0.25 83 1015.7
20260831232745 72 353 6.0 6.0 0.00 0.00 0.25 83 1015.8
20260831231954 72 352 5.0 10.0 0.00 0.00 0.25 82 1015.6
20260831231314 0 355 6.0 8.0 0.00 0.00 0.25
20260831230524 73 354 6.0 9.0 0.00 0.00 0.25 83 1015.7
20260831225844 0 355 4.0 6.0 0.00 0.00 0.25
20260831224727 73 353 2.0 9.0 0.00 0.00 0.25 83 1016.0
20260831224058 0 354 6.0 5.0 0.00 0.00 0.25
20260831223258 0 358 5.0 6.0 0.00 0.00 0.25
20260831222505 73 352 9.0 7.0 0.00 0.00 0.25 80 1016.1
20260831221430 73 358 5.0 3.0 0.00 0.00 0.25 81 1016.1
20260831220637 74 355 3.0 10.0 0.00 0.00 0.25 80 1016.4
20260831215957 74 354 7.0 10.0 0.00 0.00 0.25 80 1016.4
20260831215317 74 355 6.0 11.0 0.00 0.00 0.25 80 1016.4
20260831214636 74 355 6.0 11.0 0.00 0.00 0.25 81 1016.4
20260831213956 73 356 7.0 12.0 0.00 0.00 0.25 83 1016.4
20260831213316 73 351 7.0 15.0 0.00 0.00 0.25 84 1016.3
20260831212642 74 353 9.0 15.0 0.00 0.00 0.25 84 1016.4
20260831212002 74 353 9.0 14.0 0.00 0.00 0.25 84 1016.4
20260831211322 74 355 7.0 11.0 0.00 0.00 0.25 84 1016.3
20260831210647 0 355 7.0 6.0 0.00 0.00 0.25
20260831205906 74 356 7.0 14.0 0.00 0.00 0.25 85 1016.1